Parsons, KS

9:25 PM CDT on August 17, 2017 (GMT -0500)
Tri-City

Weather History for KPPF - May, 2014

Change the Weather History Date:

Tuesday, May 13, 2014

  Actual Average Record
Temperature  
Mean Temperature 56 °F -  
Max Temperature 64 °F 76 °F 91 °F (1956)
Min Temperature 48 °F 54 °F 41 °F (1971)
Degree Days  
Heating Degree Days 9    
Growing Degree Days 6 (Base 50)    
Moisture  
Dew Point 42 °F    
Average Humidity 64    
Maximum Humidity 83    
Minimum Humidity 41    
Precipitation  
Precipitation 0.00 in - - ()
Sea Level Pressure  
Sea Level Pressure 30.20 in    
Wind  
Wind Speed 10 mph (North)    
Max Wind Speed 14 mph    
Max Gust Speed 20 mph    
Visibility 10 miles    
Events      
Averages and records for this station are not official NWS values.
T = Trace of Precipitation, MM = Missing Value Source: NWS Daily Summary

Daily Weather History Graph

Daily Weather History Graph

Search for Another Location

Airport or City:

Trip Planner

Search our weather history database for the weather conditions in past years. The results will help you decide how hot, cold, wet, or windy it might be!

Date:

Astronomy

May. 13, 2014 Rise Set
Actual Time 6:14 AM CDT 8:22 PM CDT
Civil Twilight 5:45 AM CDT 8:51 PM CDT
Nautical Twilight 5:10 AM CDT 9:27 PM CDT
Astronomical Twilight 4:32 AM CDT 10:05 PM CDT
Moon 7:26 PM CDT (5/13) 5:30 AM CDT (5/13)
Length of Visible Light 15h 05m
Length of Day
14h 07m
Waxing Gibbous, 99% of the Moon is Illuminated
May 13
Waxing Gibbous
May 14
Full
May 21
Last Quarter
May 28
New
Jun 5
First Quarter

Hourly Weather History & Observations

Time (CDT) Temp. Dew Point Humidity Pressure Visibility Wind Dir Wind Speed Gust Speed Precip Events Conditions
12:52 AM 51.1 °F 43.0 °F 74% 30.11 in 10.0 mi North 11.5 mph - N/A   Overcast
1:52 AM 51.1 °F 44.1 °F 77% 30.15 in 10.0 mi NNW 11.5 mph - N/A   Overcast
2:52 AM 50.0 °F 42.1 °F 74% 30.12 in 10.0 mi NW 11.5 mph - N/A   Overcast
4:52 AM 50.0 °F 42.1 °F 74% 30.11 in 10.0 mi NNW 12.7 mph 18.4 mph N/A   Overcast
5:52 AM 48.9 °F 41.0 °F 74% 30.12 in 10.0 mi NNW 13.8 mph - N/A   Overcast
6:52 AM 48.9 °F 39.9 °F 71% 30.14 in 10.0 mi North 13.8 mph - N/A   Overcast
8:52 AM 50.0 °F 41.0 °F 71% 30.20 in 10.0 mi North 8.1 mph - N/A   Overcast
11:52 AM 54.0 °F 42.1 °F 64% 30.24 in 10.0 mi North 9.2 mph - N/A   Overcast
12:52 PM 57.0 °F 44.1 °F 62% 30.24 in 10.0 mi NNW 10.4 mph - N/A   Overcast
1:52 PM 61.0 °F 44.1 °F 54% 30.22 in 10.0 mi North 9.2 mph - N/A   Overcast
2:52 PM 61.0 °F 44.1 °F 54% 30.22 in 10.0 mi North 11.5 mph 19.6 mph N/A   Overcast
3:52 PM 61.0 °F 43.0 °F 52% 30.22 in 10.0 mi North 11.5 mph - N/A   Overcast
4:52 PM 64.9 °F 44.1 °F 47% 30.20 in 10.0 mi North 9.2 mph - N/A   Scattered Clouds
5:52 PM 64.9 °F 42.1 °F 43% 30.20 in 10.0 mi NNE 8.1 mph - N/A   Scattered Clouds
6:52 PM 64.0 °F 39.9 °F 41% 30.19 in 10.0 mi North 13.8 mph - N/A   Mostly Cloudy
7:52 PM 59.0 °F 39.9 °F 49% 30.22 in 10.0 mi North 5.8 mph - N/A   Clear
8:52 PM 54.0 °F 41.0 °F 62% 30.25 in 10.0 mi North 4.6 mph - N/A   Clear
9:52 PM 50.0 °F 43.0 °F 77% 30.26 in 10.0 mi Calm Calm - N/A   Clear
10:52 PM 50.0 °F 44.1 °F 80% 30.27 in 10.0 mi Calm Calm - N/A   Clear
11:52 PM 50.0 °F 45.0 °F 83% 30.27 in 10.0 mi Calm Calm - N/A   Clear